KCIKMI Weather Reports


time (UTC)temp
C
wind
direction
speed
KPH
gust
KPH
rain 1hr
cm
rain 24hr
cm
rain mn
cm
humidity
%
barometer
mb
20260510114546 12 196 0.0 0.0 0.00 1.14 0.00 95 1011.4
20260510114045 12 196 0.0 0.0 0.00 1.14 0.00 95 1011.3
20260510113545 12 197 0.0 0.0 0.00 1.14 0.00 95 1011.4
20260510113046 12 190 0.0 0.0 0.00 1.14 0.00 95 1011.3
20260510112545 12 194 0.0 0.0 0.00 1.14 0.00 95 1011.3
20260510112045 12 194 0.0 0.0 0.00 1.14 0.00 95 1011.3
20260510111545 12 192 0.0 1.6 0.00 1.14 0.00 95 1011.2
20260510111044 12 192 0.0 1.6 0.00 1.14 0.00 95 1011.2
20260510110543 12 196 0.0 0.0 0.00 1.14 0.00 95 1011.2
20260510110047 12 197 0.0 0.0 0.00 1.14 0.00 96 1011.2
20260510105543 12 197 0.0 0.0 0.00 1.17 0.00 96 1011.2
20260510105042 12 197 0.0 0.0 0.00 1.17 0.00 95 1011.2
20260510104542 12 197 0.0 0.0 0.00 1.17 0.00 96 1011.3
20260510104041 12 197 0.0 0.0 0.00 1.17 0.00 96 1011.5
20260510103541 12 197 0.0 0.0 0.00 1.17 0.00 96 1011.4
20260510103043 12 197 0.0 0.0 0.00 1.17 0.00 96 1011.2
20260510102541 12 197 0.0 0.0 0.00 1.17 0.00 95 1011.3
20260510102040 12 197 0.0 0.0 0.00 1.17 0.00 95 1011.2
20260510101540 12 197 0.0 0.0 0.00 1.17 0.00 95 1011.1
20260510101039 12 197 0.0 0.0 0.00 1.17 0.00 95 1011.0
20260510100541 12 197 0.0 0.0 0.00 1.17 0.00 95 1011.1
20260510100038 12 197 0.0 0.0 0.00 1.17 0.00 95 1011.2
20260510095538 12 197 0.0 0.0 0.00 1.17 0.00 95 1011.1
20260510095038 12 197 0.0 0.0 0.00 1.17 0.00 95 1011.1
20260510094538 12 197 0.0 0.0 0.00 1.17 0.00 95 1011.1
20260510094037 12 197 0.0 0.0 0.00 1.17 0.00 95 1011.0
20260510093536 12 197 0.0 0.0 0.00 1.17 0.00 95 1010.9
20260510093036 12 197 0.0 0.0 0.00 1.17 0.00 95 1010.8
20260510092538 12 197 0.0 0.0 0.00 1.17 0.00 95 1010.7
20260510092035 12 197 0.0 0.0 0.00 1.17 0.00 95 1010.5
20260510091534 12 197 0.0 0.0 0.00 1.17 0.00 95 1010.6
20260510091034 12 197 0.0 0.0 0.00 1.17 0.00 95 1010.5
20260510090534 12 197 0.0 0.0 0.00 1.17 0.00 95 1010.5
20260510090033 12 197 0.0 0.0 0.00 1.17 0.00 95 1010.5
20260510085535 12 197 0.0 0.0 0.00 1.17 0.00 95 1010.4
20260510085033 12 197 0.0 0.0 0.00 1.17 0.00 95 1010.4
20260510084534 12 197 0.0 0.0 0.00 1.17 0.00 95 1010.4
20260510084033 12 197 0.0 0.0 0.00 1.17 0.00 95 1010.5
20260510083535 12 197 0.0 0.0 0.00 1.17 0.00 95 1010.6
20260510083032 12 197 0.0 0.0 0.00 1.17 0.00 95 1010.6
20260510082531 12 197 0.0 0.0 0.00 1.17 0.00 95 1010.6
20260510082031 12 197 0.0 0.0 0.00 1.17 0.00 95 1010.5
20260510081538 12 197 0.0 0.0 0.00 1.17 0.00 95 1010.5
20260510081032 11 197 0.0 0.0 0.00 1.17 0.00 95 1010.5
20260510080532 11 197 0.0 0.0 0.00 1.17 0.00 95 1010.5
20260510080031 11 197 0.0 0.0 0.00 1.17 0.00 95 1010.5
20260510075530 11 197 0.0 0.0 0.00 1.17 0.00 95 1010.5
20260510075030 11 197 0.0 0.0 0.00 1.17 0.00 95 1010.6
20260510074530 11 197 0.0 0.0 0.00 1.17 0.00 95 1010.6
20260510074032 11 197 0.0 0.0 0.00 1.17 0.00 95 1010.6
20260510073528 11 197 0.0 0.0 0.00 1.17 0.00 95 1010.4
20260510073033 11 197 0.0 0.0 0.00 1.17 0.00 95 1010.3
20260510072527 11 197 0.0 0.0 0.00 1.17 0.00 95 1010.2
20260510072027 11 197 0.0 0.0 0.00 1.17 0.00 95 1010.2
20260510071527 11 197 0.0 0.0 0.00 1.17 0.00 94 1010.1
20260510071026 11 197 0.0 0.0 0.00 1.17 0.00 94 1010.1
20260510070526 11 197 0.0 0.0 0.00 1.17 0.00 94 1010.0
20260510070026 11 197 0.0 0.0 0.00 1.17 0.00 94 1010.0
20260510065526 11 197 0.0 0.0 0.00 1.17 0.00 94 1010.0
20260510065027 11 197 0.0 0.0 0.00 1.17 0.00 94 1010.0
20260510064529 11 197 0.0 0.0 0.00 1.17 0.00 94 1010.0
20260510064025 11 203 0.0 0.0 0.00 1.17 0.00 94 1010.0
20260510063525 11 202 0.0 0.0 0.00 1.17 0.00 94 1010.0
20260510063034 11 202 0.0 0.0 0.00 1.17 0.00 94 1010.1
20260510062525 11 202 0.0 0.0 0.00 1.17 0.00 94 1010.1
20260510062025 11 202 0.0 0.0 0.00 1.17 0.00 94 1010.1
20260510061525 11 202 0.0 0.0 0.00 1.17 0.00 94 1010.1
20260510061025 11 203 0.0 1.6 0.00 1.17 0.00 94 1010.1
20260510060525 11 204 0.0 1.6 0.00 1.17 0.00 94 1010.1
20260510060025 11 218 0.0 3.2 0.00 1.17 0.00 94 1010.2
20260510055523 11 223 0.0 3.2 0.00 1.17 0.00 94 1010.2
20260510055023 11 192 0.0 1.6 0.00 1.17 0.00 94 1010.2
20260510054624 11 191 0.0 1.6 0.00 1.17 0.00 94 1010.2
20260510054026 11 168 0.0 1.6 0.00 1.17 0.00 94 1010.1
20260510053523 11 204 0.0 1.6 0.00 1.17 0.00 94 1010.0
20260510053023 11 190 0.0 1.6 0.00 1.17 0.00 93 1010.0
20260510052522 11 190 0.0 1.6 0.00 1.17 0.00 93 1010.2
20260510052022 11 202 0.0 1.6 0.00 1.17 0.00 93 1010.1
20260510051527 11 201 0.0 0.0 0.00 1.17 0.00 93 1010.0
20260510051022 11 201 0.0 0.0 0.00 1.17 0.00 93 1010.0
20260510050523 11 201 0.0 0.0 0.00 1.17 0.00 93 1010.0
20260510050021 11 201 0.0 3.2 0.00 1.17 0.00 93 1010.0
20260510045521 11 202 0.0 3.2 0.00 1.17 0.00 93 1010.0
20260510045021 11 165 0.0 0.0 0.00 1.17 0.00 93 1010.1
20260510044520 11 165 0.0 1.6 0.00 1.17 0.00 93 1010.1
20260510044020 11 165 0.0 1.6 0.00 1.17 0.00 93 1010.1
20260510043519 11 178 0.0 3.2 0.00 1.17 0.00 93 1010.0
20260510043020 11 176 0.0 3.2 0.00 1.17 0.00 93 1010.0
20260510042519 11 200 0.0 3.2 0.00 1.17 0.00 93 1010.1
20260510042017 11 199 0.0 0.0 0.00 1.17 0.00 93 1010.1
20260510041515 11 182 0.0 0.0 0.00 1.17 0.00 93 1010.1
20260510041015 11 182 0.0 0.0 0.00 1.17 0.00 93 1010.1
20260510040513 11 182 0.0 0.0 0.00 1.17 0.00 94 1010.2
20260510040015 11 182 0.0 0.0 0.00 1.17 1.17 94 1010.2
20260510035513 11 182 0.0 0.0 0.00 1.17 1.17 94 1010.1
20260510035013 11 182 0.0 0.0 0.00 1.17 1.17 94 1010.1
20260510034511 11 182 0.0 0.0 0.00 1.17 1.17 94 1010.1
20260510034011 11 182 0.0 0.0 0.00 1.17 1.17 94 1010.3
20260510033511 11 182 0.0 0.0 0.00 1.17 1.17 94 1010.3
20260510033012 11 182 0.0 0.0 0.00 1.17 1.17 94 1010.4
20260510032510 11 182 0.0 0.0 0.00 1.17 1.17 94 1010.3
20260510032010 11 182 0.0 0.0 0.00 1.17 1.17 94 1010.2
20260510031516 11 182 0.0 0.0 0.00 1.17 1.17 94 1010.3
20260510031010 11 182 0.0 0.0 0.00 1.17 1.17 94 1010.4
20260510030514 11 182 0.0 0.0 0.00 1.17 1.17 94 1010.5
20260510030012 11 182 0.0 0.0 0.00 1.17 1.17 94 1010.6
20260510025510 11 182 0.0 0.0 0.05 1.17 1.17 94 1010.6
20260510025009 11 182 0.0 0.0 0.08 1.17 1.17 93 1010.7
20260510024512 11 182 0.0 0.0 0.10 1.17 1.17 93 1010.7
20260510024013 11 182 0.0 0.0 0.10 1.17 1.17 93 1010.7
20260510023508 11 182 0.0 0.0 0.10 1.17 1.17 93 1010.7
20260510023008 11 182 0.0 0.0 0.13 1.17 1.17 93 1010.7
20260510022508 11 182 0.0 0.0 0.15 1.17 1.17 93 1010.8
20260510022108 11 182 0.0 0.0 0.15 1.17 1.17 93 1010.8
20260510021516 11 182 0.0 0.0 0.15 1.17 1.17 93 1010.8
20260510021010 11 182 0.0 0.0 0.15 1.17 1.17 93 1010.8
20260510020507 11 182 0.0 0.0 0.15 1.17 1.17 93 1010.9
20260510020007 11 182 0.0 0.0 0.13 1.14 1.14 93 1011.0
20260510015507 11 182 0.0 0.0 0.10 1.12 1.12 93 1011.0
20260510015010 11 182 0.0 0.0 0.08 1.09 1.09 92 1011.1
20260510014508 11 182 0.0 0.0 0.05 1.07 1.07 92 1011.1
20260510014006 11 182 0.0 0.0 0.05 1.07 1.07 92 1011.2
20260510013506 11 182 0.0 0.0 0.05 1.07 1.07 92 1011.2
20260510013006 11 182 0.0 0.0 0.03 1.04 1.04 92 1011.3
20260510012505 11 182 0.0 0.0 0.00 1.02 1.02 92 1011.4
20260510012005 11 182 0.0 0.0 0.00 1.02 1.02 91 1011.5
20260510011506 11 182 0.0 0.0 0.00 1.02 1.02 91 1011.4
20260510011007 11 182 0.0 0.0 0.00 1.02 1.02 91 1011.4
20260510010505 11 181 0.0 0.0 0.00 1.02 1.02 91 1011.4
20260510010006 11 182 0.0 0.0 0.00 1.02 1.02 91 1011.3
20260510005504 11 182 0.0 0.0 0.00 1.02 1.02 91 1011.2
20260510005004 11 181 0.0 0.0 0.00 1.02 1.02 90 1011.3
20260510004504 11 179 0.0 0.0 0.00 1.02 1.02 90 1011.3
20260510004007 11 179 0.0 0.0 0.00 1.02 1.02 90 1011.3
20260510003504 11 179 0.0 0.0 0.00 1.02 1.02 90 1011.4
20260510003004 11 179 0.0 0.0 0.00 1.02 1.02 90 1011.4
20260510002503 11 199 0.0 0.0 0.00 1.02 1.02 89 1011.4
20260510002103 11 199 0.0 0.0 0.03 1.02 1.02 90 1011.3
20260510001503 12 199 0.0 0.0 0.03 1.02 1.02 89 1011.4
20260510001003 12 199 0.0 0.0 0.03 1.02 1.02 89 1011.4
20260510000502 12 199 0.0 8.0 0.03 1.02 1.02 89 1011.3
20260510000006 12 214 0.0 8.0 0.03 1.02 1.02 89 1011.3
20260509235502 12 199 0.0 3.2 0.03 1.02 1.02 89 1011.3
20260509235004 12 188 0.0 3.2 0.03 1.02 1.02 89 1011.3
20260509234502 12 192 0.0 6.4 0.05 1.02 1.02 90 1011.3
20260509234002 12 203 0.0 6.4 0.05 1.02 1.02 90 1011.3
20260509233501 12 188 0.0 4.8 0.05 1.02 1.02 91 1011.4
20260509233002 12 207 0.0 6.4 0.05 1.02 1.02 91 1011.4
20260509232502 12 228 1.6 6.4 0.08 1.02 1.02 91 1011.4
20260509232002 12 199 0.0 3.2 0.05 0.99 0.99 92 1011.4
20260509231501 12 202 0.0 3.2 0.05 0.99 0.99 92 1011.4
20260509231001 12 204 0.0 3.2 0.05 0.99 0.99 92 1011.5
20260509230502 12 202 0.0 3.2 0.05 0.99 0.99 92 1011.5
20260509230001 13 201 0.0 3.2 0.05 0.99 0.99 92 1011.5
20260509225601 13 207 0.0 0.0 0.08 0.99 0.99 92 1011.4
20260509225100 13 207 0.0 0.0 0.10 0.99 0.99 92 1011.4
20260509224605 13 195 0.0 3.2 0.18 0.97 0.97 92 1011.4
20260509224100 13 197 0.0 3.2 0.28 0.97 0.97 92 1011.3
20260509223600 13 197 0.0 3.2 0.36 0.97 0.97 92 1011.3
20260509223107 13 187 0.0 1.6 0.41 0.97 0.97 92 1011.2
20260509222603 13 189 0.0 3.2 0.43 0.94 0.94 92 1011.2
20260509222100 13 195 0.0 3.2 0.51 0.94 0.94 92 1011.2
20260509221607 13 203 0.0 3.2 0.56 0.94 0.94 92 1011.2
20260509221059 13 211 0.0 3.2 0.64 0.94 0.94 92 1011.2
20260509220602 13 200 0.0 1.6 0.69 0.94 0.94 92 1011.2
20260509220100 13 189 0.0 3.2 0.71 0.94 0.94 92 1011.2
20260509215559 13 193 0.0 4.8 0.69 0.91 0.91 92 1011.2
20260509215059 13 202 0.0 4.8 0.69 0.89 0.89 92 1011.1
20260509214607 13 202 0.0 4.8 0.58 0.79 0.79 91 1011.0
20260509214057 13 195 0.0 3.2 0.48 0.69 0.69 91 1010.9
20260509213559 13 178 0.0 3.2 0.41 0.61 0.61 91 1010.9
20260509213058 13 218 0.0 3.2 0.36 0.56 0.56 90 1010.8
20260509212657 13 223 0.0 3.2 0.30 0.51 0.51 90 1010.8
20260509212059 13 202 0.0 3.2 0.25 0.43 0.43 90 1010.8
20260509211600 13 207 0.0 4.8 0.20 0.36 0.36 89 1010.7
20260509211101 13 188 0.0 6.4 0.15 0.28 0.28 89 1010.7
20260509210557 13 189 0.0 6.4 0.15 0.25 0.25 89 1010.8
20260509210114 13 190 1.6 9.7 0.15 0.23 0.23 88 1010.7
20260509205555 13 192 0.0 9.7 0.15 0.23 0.23 89 1010.7
20260509205055 13 166 0.0 6.4 0.13 0.20 0.20 89 1010.8
20260509204559 13 189 1.6 9.7 0.13 0.20 0.20 88 1010.9
20260509204055 13 197 1.6 9.7 0.13 0.20 0.20 88 1010.6
20260509203555 13 214 1.6 8.0 0.13 0.20 0.20 88 1010.4
20260509203055 14 203 1.6 6.4 0.13 0.20 0.20 87 1010.3
20260509202555 14 199 1.6 8.0 0.10 0.18 0.18 86 1010.3
20260509202055 14 233 1.6 9.7 0.10 0.18 0.18 85 1010.3
20260509201600 15 206 3.2 17.7 0.08 0.15 0.15 84 1010.2
20260509201053 15 204 6.4 17.7 0.05 0.13 0.13 82 1010.3
20260509200553 15 222 6.4 17.7 0.00 0.08 0.08 80 1010.6
20260509195552 16 202 1.6 12.9 0.00 0.08 0.08 76 1010.2
20260509195051 16 190 3.2 12.9 0.00 0.08 0.08 75 1010.4
20260509194552 16 197 3.2 12.9 0.00 0.08 0.08 75 1010.3
20260509194051 16 183 3.2 9.7 0.00 0.08 0.08 74 1010.3
20260509193551 16 194 1.6 9.7 0.00 0.08 0.08 73 1010.2
20260509193151 16 188 3.2 9.7 0.00 0.08 0.08 72 1010.4
20260509192553 16 228 0.0 6.4 0.00 0.08 0.08 72 1010.4
20260509192050 16 218 1.6 11.3 0.00 0.08 0.08 71 1010.4
20260509191550 16 218 1.6 11.3 0.00 0.08 0.08 69 1010.4
20260509191050 17 204 1.6 9.7 0.00 0.08 0.08 68 1010.4
20260509190550 17 195 1.6 12.9 0.00 0.08 0.08 68 1010.4
20260509185548 17 173 3.2 9.7 0.00 0.08 0.08 68 1010.5
20260509185047 17 239 1.6 6.4 0.00 0.08 0.08 71 1010.5
20260509184545 16 225 0.0 6.4 0.00 0.08 0.08 73 1010.5
20260509184044 16 169 0.0 6.4 0.00 0.08 0.08 73 1010.5
20260509183544 16 180 1.6 6.4 0.00 0.08 0.08 73 1010.5
20260509183044 16 313 1.6 6.4 0.00 0.08 0.08 73 1010.7
20260509182543 16 218 0.0 4.8 0.00 0.08 0.08 73 1010.7
20260509182043 16 211 1.6 4.8 0.00 0.08 0.08 73 1010.7
20260509181542 16 223 0.0 4.8 0.00 0.08 0.08 74 1010.7
20260509181043 16 254 0.0 4.8 0.00 0.08 0.08 75 1010.8
20260509180540 15 194 0.0 4.8 0.00 0.08 0.08 75 1010.8
20260509180038 15 205 1.6 4.8 0.00 0.08 0.08 76 1010.9
20260509175536 15 170 0.0 4.8 0.00 0.08 0.08 77 1010.8
20260509175035 15 186 0.0 3.2 0.00 0.08 0.08 78 1010.9
20260509174535 15 215 0.0 1.6 0.00 0.08 0.08 78 1011.0
20260509174034 14 200 0.0 3.2 0.00 0.08 0.08 79 1011.1
20260509173533 14 358 0.0 3.2 0.00 0.08 0.08 79 1011.1
20260509173033 14 188 0.0 3.2 0.00 0.08 0.08 80 1011.3
20260509172533 14 209 0.0 1.6 0.00 0.08 0.08 80 1011.3
20260509172033 14 206 0.0 0.0 0.00 0.08 0.08 82 1011.0
20260509171537 13 202 0.0 3.2 0.00 0.08 0.08 81 1011.4
20260509171030 13 223 0.0 4.8 0.00 0.08 0.08 81 1011.6
20260509170531 13 194 0.0 4.8 0.00 0.08 0.08 80 1011.9
20260509170031 13 196 0.0 4.8 0.00 0.08 0.08 79 1011.9
20260509165526 13 211 0.0 4.8 0.00 0.08 0.08 79 1011.8
20260509165028 13 209 0.0 4.8 0.00 0.08 0.08 79 1011.8
20260509164526 13 204 0.0 4.8 0.00 0.08 0.08 78 1011.8
20260509164028 13 237 0.0 4.8 0.00 0.08 0.08 77 1011.8
20260509163530 13 210 0.0 4.8 0.00 0.08 0.08 76 1011.8
20260509163027 14 202 1.6 4.8 0.00 0.08 0.08 75 1011.7
20260509162525 14 216 0.0 4.8 0.00 0.08 0.08 75 1011.8
20260509162025 14 199 0.0 4.8 0.00 0.08 0.08 75 1011.7
20260509161525 14 203 0.0 4.8 0.00 0.08 0.08 75 1011.8
20260509161024 14 190 1.6 6.4 0.00 0.08 0.08 74 1011.8
20260509160523 15 193 0.0 6.4 0.00 0.08 0.08 73 1011.9
20260509160023 15 189 0.0 9.7 0.00 0.08 0.08 74 1011.9
20260509155522 14 210 0.0 9.7 0.00 0.08 0.08 75 1011.9
20260509155022 14 196 1.6 9.7 0.00 0.08 0.08 75 1012.0
20260509154521 14 230 1.6 6.4 0.00 0.08 0.08 74 1012.0
20260509154023 14 229 0.0 4.8 0.00 0.08 0.08 75 1012.2
20260509153522 14 206 0.0 3.2 0.00 0.08 0.08 74 1012.2
20260509153019 14 204 0.0 3.2 0.00 0.08 0.08 74 1012.2
20260509152519 14 209 0.0 3.2 0.00 0.08 0.08 73 1012.2
20260509152019 14 214 0.0 3.2 0.00 0.08 0.08 74 1012.3
20260509151518 14 249 0.0 8.0 0.00 0.08 0.08 74 1012.2
20260509151018 14 216 1.6 8.0 0.00 0.08 0.08 74 1012.2
20260509150518 14 201 3.2 8.0 0.00 0.08 0.08 74 1012.3
20260509150030 15 220 0.0 6.4 0.00 0.08 0.08 75 1012.3
20260509145517 15 256 0.0 6.4 0.00 0.08 0.08 73 1012.4
20260509145017 15 214 0.0 4.8 0.00 0.08 0.08 76 1012.3
20260509144528 15 257 0.0 4.8 0.00 0.08 0.08 76 1012.2
20260509144019 15 257 0.0 4.8 0.00 0.08 0.08 76 1012.3
20260509143515 14 210 0.0 1.6 0.00 0.08 0.08 77 1012.4
20260509143015 14 196 0.0 3.2 0.00 0.08 0.08 77 1012.3
20260509142514 14 346 0.0 3.2 0.00 0.08 0.08 78 1012.3
20260509142014 13 197 0.0 1.6 0.00 0.08 0.08 79 1012.1
20260509141515 13 204 0.0 1.6 0.00 0.08 0.08 77 1012.0
20260509141014 13 268 0.0 1.6 0.00 0.08 0.08 77 1012.1
20260509140509 13 206 0.0 1.6 0.00 0.08 0.08 78 1012.2
20260509140008 13 190 0.0 4.8 0.00 0.08 0.08 80 1012.4
20260509135508 13 203 0.0 6.4 0.00 0.08 0.08 81 1012.6
20260509135007 13 193 1.6 6.4 0.00 0.08 0.08 80 1012.7
20260509134510 13 196 0.0 3.2 0.00 0.08 0.08 80 1012.8
20260509134010 13 194 0.0 8.0 0.00 0.08 0.08 82 1012.7
20260509133506 12 192 0.0 8.0 0.00 0.08 0.08 82 1012.9
20260509133004 12 204 0.0 1.6 0.00 0.08 0.08 84 1013.0
20260509132502 12 211 0.0 1.6 0.00 0.08 0.08 84 1012.8
20260509132003 12 223 0.0 1.6 0.00 0.08 0.08 85 1013.0
20260509131502 12 203 0.0 0.0 0.00 0.08 0.08 86 1013.0
20260509131100 12 204 0.0 0.0 0.00 0.08 0.08 85 1013.2
20260509130602 12 209 0.0 0.0 0.00 0.08 0.08 85 1013.2
20260509130059 11 311 0.0 1.6 0.00 0.08 0.08 86 1013.3
20260509125558 11 312 0.0 1.6 0.03 0.08 0.08 86 1013.3
20260509125056 11 203 0.0 1.6 0.03 0.08 0.08 87 1013.3
20260509124555 11 214 0.0 1.6 0.03 0.08 0.08 88 1013.2
20260509124055 11 342 0.0 1.6 0.03 0.08 0.08 90 1013.2
20260509123554 11 342 0.0 1.6 0.03 0.08 0.08 91 1013.1
20260509123054 11 343 0.0 0.0 0.03 0.08 0.08 91 1013.0
20260509122551 10 343 0.0 0.0 0.03 0.08 0.08 91 1013.0
20260509122050 10 342 0.0 0.0 0.03 0.08 0.08 91 1013.1
20260509121552 10 344 0.0 0.0 0.03 0.08 0.08 91 1013.2
20260509121049 10 344 0.0 0.0 0.03 0.08 0.08 91 1013.3
20260509120547 10 344 0.0 0.0 0.03 0.08 0.08 91 1013.2
20260509120045 10 347 0.0 0.0 0.03 0.08 0.08 91 1013.1
20260509115544 10 353 0.0 4.8 0.03 0.05 0.05 91 1013.0
20260509115043 10 358 0.0 4.8 0.03 0.05 0.05 92 1012.9